Location: Maddington
(51.2000°N, 1.9167°W)
Time: 10:38:26
(UTC+00:00)

NOSS 2-2 (E) - Pass Details

Date: 22 January 2021
Orbit: 465 x 1741 km, 63.3° (Epoch: 16 January)

Event Time Altitude Azimuth Distance (km) Brightness Sun altitude
Rises 20:26:30 0° 315° (NW) 3,044 7.8 -34.8°
Reaches altitude 10° 20:28:33 10° 317° (NW) 2,262 7.0 -35.1°
Enters shadow 20:30:54 30° 322° (NW) 1,443 5.7 -35.5°
